GSAT-15                 
1 41028U 15065A   19265.52464953 -.00000265  00000-0  00000+0 0  9996
2 41028   0.0151 199.8128 0001820 352.8122  90.8385  1.00270337 14197
BADR-7 (ARABSAT-6B)     
1 41029U 15065B   19266.16297546  .00000135  00000-0  00000+0 0  9995
2 41029   0.0548 259.0726 0005572 329.6103 217.7070  1.00270593 14252
ARIANE 5 R/B            
1 41030U 15065C   19264.29989315  .00000705  00000-0  21702-3 0  9990
2 41030   4.6483 316.2957 7229271 289.9730   9.7580  2.34049135 32674
ARIANE 5 DEB [SYLDA]    
1 41031U 15065D   19266.02529986  .00008225  00000-0  11404-2 0  9990
2 41031   4.2243 145.7173 6454056 272.0219  20.7298  3.39883448 39939